Flag for West Bank Weather past 2 weeks in Tulkarm, West Bank

Now
79 °F

Clear.


Feels Like: 81 °F
Forecast: 68 / 77 °F
Wind: 7 mph from Northwest

Location: Dov Airport

Current Time: May 28, 2015 at 1:48:27 PM

Latest Report: May 28, 2015 at 12:50 PM


Visibility: 6 mi

Pressure: 29.77 "Hg

Humidity: 70%

Dew point: 68 °F

Location of TulkarmLocation

Historic Weather in Tulkarm — Graph

°F

Tulkarm temperature yesterday

Maximum temperature yesterday: 102 °F (at 3:50 PM)
Minimum temperature yesterday: 70 °F (at 5:00 AM)
Average temperature yesterday: 87 °F

Past Weeks' High & Low Weather Summary

 TemperatureHumidityPressure
High104 °F (May 18, 12:50 PM)89% (May 28, 6:50 AM)30.15 "Hg (May 28, 6:50 AM)
Low63 °F (May 16, 5:50 AM)6% (May 18, 12:50 PM)29.62 "Hg (May 27, 5:50 PM)
Average76 °F64%29.88 "Hg
* Reported May 13 12:50 PM — May 28 12:50 PM, Tulkarm, Weather by CustomWeather, © 2015

Note: Actual official high and low records may vary slightly from our data, if they occured in-between our weather recording intervals... More about our weather records

Advertising

Tulkarm weather history for previous 24 hours

 ConditionsComfort  
Time TempWeatherWind HumidityBarometerVisibility
12:50 PM
Thu, May 28
79 °FClear.7 mph70%29.77 "Hg6 mi
11:50 AM79 °FClear.7 mph74%29.77 "Hg6 mi
10:50 AM79 °FClear.7 mph74%29.77 "Hg6 mi
9:50 AM79 °FClear.6 mph70%29.77 "Hg6 mi
8:50 AM77 °FClear.5 mph79%29.74 "Hg6 mi
7:50 AM77 °FClear.10 mph83%29.71 "Hg6 mi
6:50 AM77 °FClear.6 mph89%29.71 "Hg6 mi
5:50 AM77 °FClear.5 mph83%29.71 "Hg10 mi
4:50 AM77 °FClear.1 mph74%29.68 "Hg10 mi
4:00 AM77 °FClear.3 mph74%29.68 "Hg10 mi
10:50 PM
Wed, May 27
86 °FClear.3 mph38%29.71 "Hg10 mi
9:50 PM86 °FClear.8 mph46%29.71 "Hg10 mi
8:50 PM86 °FClear.7 mph52%29.68 "Hg10 mi
7:50 PM97 °FSunny.1 mph19%29.62 "Hg10 mi
6:50 PM102 °FSunny.1 mph14%29.62 "Hg10 mi
5:50 PM102 °FSunny.1 mph15%29.62 "Hg10 mi
4:50 PM102 °FSunny.1 mph15%29.65 "Hg10 mi
3:50 PM102 °FSunny.2 mph15%29.68 "Hg10 mi
2:50 PM97 °FSunny.6 mph22%29.68 "Hg10 mi
1:50 PM93 °FSunny.8 mph28%29.71 "Hg10 mi
Weather by CustomWeather, © 2015

See weather overviewHow to use our weather pages